Location: Newark
(56.0692°N, 115.8617°E)
Time: 12:47:02
(UTC+00:00)

Vanguard 2 Rocket - Pass Details

Date: 04 June 2020
Orbit: 556 x 3325 km, 32.9° (Epoch: 14 July)

Event Time Altitude Azimuth Distance (km) Brightness Sun altitude
Rises 09:45:32 0° 244° (WSW) 4,429 11.3 22.6°
Reaches altitude 10° 09:49:24 10° 226° (SW) 3,894 10.8 22.0°
Maximum altitude 09:55:54 18° 188° (S) 3,945 10.2 21.1°
Drops below altitude 10° 10:04:29 10° 153° (SSE) 5,348 10.5 20.0°
Sets 10:11:25 0° 139° (SE) 6,830 10.9 19.0°
